Location: Burleson Alternative School
(32.5290°N, 97.3406°W)
Time: 02:45:19
(UTC+00:00)

Tiros 1 despin weight - Visible Passes

Search period start: 12 November 2024 00:00
Search period end: 22 November 2024 00:00
Orbit: 571 x 610 km, 48.2° (Epoch: 11 November)

Date Brightness Start Highest point End Pass type
(mag) Time Alt. Az. Time Alt. Az. Time Alt. Az.
12 Nov ? 10:34:40 20° NE 10:34:40 20° NE 10:36:10 10° NE visible
12 Nov ? 12:11:11 11° NW 12:13:28 15° NNW 12:16:07 10° NNE visible
13 Nov ? 10:42:19 17° NNE 10:42:19 17° NNE 10:43:35 10° NE visible
13 Nov ? 12:19:40 10° NW 12:21:29 12° NNW 12:23:19 10° NNE visible
14 Nov ? 10:49:51 15° NNE 10:49:51 15° NNE 10:50:53 10° NNE visible
14 Nov ? 12:28:40 10° NNW 12:29:34 10° N 12:30:27 10° N visible
15 Nov ? 10:57:17 13° NNE 10:57:17 13° NNE 10:58:06 10° NNE visible
16 Nov ? 11:04:38 11° N 11:04:38 11° N 11:05:15 10° NNE visible
17 Nov ? 11:11:56 11° N 11:11:56 11° N 11:12:22 10° N visible
18 Nov ? 11:19:11 10° N 11:19:11 10° N 11:19:35 10° N visible
19 Nov ? 11:26:23 10° N 11:27:06 10° N 11:27:56 10° NNE visible
20 Nov ? 11:33:35 10° N 11:35:02 12° N 11:36:44 10° NE visible
21 Nov ? 11:40:46 11° NNW 11:42:54 15° NNE 11:45:25 10° NE visible
